EW7644 Weather Reports


Display with metric or nautical units.
time (UTC)temp
F
wind
direction
speed
MPH
gust
MPH
rain 1hr
in
rain 24hr
in
rain mn
in
humidity
%
barometer
mb
20260502151510 72 27 15.0 22.0 0.00 0.00 0.00 3 1011.1
20260502123013 66 15 12.0 19.0 0.00 0.00 0.00 6 1009.9
20260502121511 66 36 10.0 16.0 0.00 0.00 0.00 6 1009.9
20260502114519 67 22 13.0 21.0 0.00 0.00 0.00 6 1009.8
20260502113010 67 23 13.0 20.0 0.00 0.00 0.00 5 1009.8
20260502111506 68 22 13.0 21.0 0.00 0.00 0.00 5 1009.9
20260502110021 67 19 11.0 18.0 0.00 0.00 0.00 6 1009.7
20260502104511 67 41 11.0 17.0 0.00 0.00 0.00 6 1009.7
20260502103023 68 22 13.0 19.0 0.00 0.00 0.00 5 1009.8
20260502101514 68 19 12.0 19.0 0.00 0.00 0.00 5 1009.9
20260502091516 67 41 11.0 14.0 0.00 0.00 0.00 4 1009.9
20260502071510 65 44 9.0 12.0 0.00 0.00 0.00 2 1010.2
20260502070037 65 45 7.0 11.0 0.00 0.00 0.00 2 1010.2
20260502064513 64 30 5.0 10.0 0.00 0.00 0.00 2 1010.2
20260502063003 65 43 6.0 9.0 0.00 0.00 0.00 2 1010.1
20260502061517 66 38 7.0 10.0 0.00 0.00 0.00 2 1010.0
20260502060027 66 55 6.0 11.0 0.00 0.00 0.00 2 1009.7
20260502054538 67 42 6.0 10.0 0.00 0.00 0.00 1 1009.7
20260502053018 68 33 7.0 12.0 0.00 0.00 0.00 1 1009.7
20260502051512 70 35 5.0 9.0 0.00 0.00 0.00 1 1009.6
20260502050015 73 349 7.0 11.0 0.00 0.00 0.00 1 1009.3
20260502044518 74 355 6.0 13.0 0.00 0.00 0.00 1 1009.3
20260502043010 74 327 6.0 12.0 0.00 0.00 0.00 1 1009.2
20260502041520 74 315 4.0 13.0 0.00 0.00 0.00 1 1008.9
20260502040039 74 336 4.0 12.0 0.00 0.00 0.00 1 1008.8
20260502034510 74 319 7.0 12.0 0.00 0.00 0.00 1 1008.6
20260502033028 75 317 6.0 13.0 0.00 0.00 0.00 1 1008.3
20260502031514 75 355 7.0 14.0 0.00 0.00 0.00 1 1008.0
20260502030009 75 325 4.0 11.0 0.00 0.00 0.00 1 1007.8
20260502024521 76 318 11.0 15.0 0.00 0.00 0.00 1 1007.7
20260502023027 77 326 7.0 17.0 0.00 0.00 0.00 1 1007.6
20260502021521 77 314 9.0 14.0 0.00 0.00 0.00 1 1007.5
20260502020019 78 319 11.0 17.0 0.00 0.00 0.00 1 1007.3
20260502014510 79 34 7.0 14.0 0.00 0.00 0.00 1 1007.1
20260502013022 80 333 9.0 15.0 0.00 0.00 0.00 1 1007.2
20260502011514 80 336 11.0 16.0 0.00 0.00 0.00 1 1007.0
20260502010009 82 306 11.0 18.0 0.00 0.00 0.00 1 1007.1
20260502004521 82 317 12.0 18.0 0.00 0.00 0.00 1 1007.2
20260502003013 82 333 14.0 23.0 0.00 0.00 0.00 1 1007.2
20260502001510 83 294 9.0 19.0 0.00 0.00 0.00 1 1007.1
20260502000032 83 281 10.0 18.0 0.00 0.00 0.00 1 1007.1
20260501234517 83 297 9.0 16.0 0.00 0.00 0.00 1 1007.2
20260501233009 83 314 10.0 21.0 0.00 0.00 0.00 1 1007.0
20260501231527 83 281 8.0 20.0 0.00 0.00 0.00 1 1006.9
20260501230031 83 292 10.0 19.0 0.00 0.00 0.00 1 1006.9
20260501224508 83 281 10.0 18.0 0.00 0.00 0.00 1 1007.1
20260501223022 84 313 12.0 20.0 0.00 0.00 0.00 1 1007.1
20260501221515 84 296 11.0 20.0 0.00 0.00 0.00 1 1007.2
20260501220009 84 304 8.0 22.0 0.00 0.00 0.00 1 1007.4
20260501214521 83 281 5.0 19.0 0.00 0.00 0.00 1 1007.5
20260501213016 84 321 10.0 18.0 0.00 0.00 0.00 1 1007.6
20260501211508 84 289 12.0 25.0 0.00 0.00 0.00 1 1007.9
20260501210018 83 265 8.0 18.0 0.00 0.00 0.00 1 1007.9
20260501204512 83 318 9.0 17.0 0.00 0.00 0.00 1 1008.1
20260501203018 83 277 7.0 19.0 0.00 0.00 0.00 1 1008.2
20260501201514 83 292 8.0 16.0 0.00 0.00 0.00 1 1008.2
20260501200007 82 284 7.0 15.0 0.00 0.00 0.00 1 1008.2
20260501194522 82 315 6.0 14.0 0.00 0.00 0.00 1 1008.4
20260501193011 82 273 3.0 16.0 0.00 0.00 0.00 1 1008.5
20260501191521 82 322 8.0 16.0 0.00 0.00 0.00 1 1008.6
20260501190015 82 328 11.0 17.0 0.00 0.00 0.00 1 1008.8
20260501184507 85 51 5.0 15.0 0.00 0.00 0.00 1 1008.9
20260501183019 82 44 4.0 13.0 0.00 0.00 0.00 1 1009.1
20260501181516 82 33 11.0 17.0 0.00 0.00 0.00 1 1009.3
20260501180023 81 32 6.0 15.0 0.00 0.00 0.00 1 1009.3
20260501174515 80 5 7.0 14.0 0.00 0.00 0.00 1 1009.3
20260501173016 80 13 12.0 18.0 0.00 0.00 0.00 1 1009.4
20260501171524 78 306 9.0 13.0 0.00 0.00 0.00 1 1009.5
20260501170011 77 17 8.0 15.0 0.00 0.00 0.00 1 1009.6
20260501164506 76 316 10.0 16.0 0.00 0.00 0.00 2 1009.6
20260501163019 76 30 11.0 16.0 0.00 0.00 0.00 2 1009.6
20260501161509 75 19 10.0 15.0 0.00 0.00 0.00 2 1009.4
20260501160020 74 17 9.0 15.0 0.00 0.00 0.00 3 1009.3
20260501154516 74 50 9.0 16.0 0.00 0.00 0.00 3 1009.3
20260501153007 73 38 9.0 15.0 0.00 0.00 0.00 4 1009.1